Temp
57 58 59 57 55 54 54 54 54 53 51 50 50 49 50 50 50 50 53 53 53 53 50 48 48 47 46 45 45 44 43 43 43 43 44 44 46 47 47 48 48 49 50
54 56 55 54 54 54 54 53 54 53 53 51 50 50 49 49 49 50 51 53 53 53 51 49 48 47 46 46 45 44 43 42 42 41 38 39 44 45 46 45 47 46 48
53 54 53 53 52 52 52 53 54 53 53 52 51 49 49 49 49 49 50 51 52 52 51 49 48 47 45 44 44 43 43 41 42 42 41 38 36 38 44 44 44 45 44
51 52 52 51 50 51 51 53 53 53 53 52 50 50 48 47 48 48 49 50 51 51 51 50 48 47 46 45 44 47 43 41 40 42 45 41 40 37 36 42 42 43 46
51 52 51 52 51 51 50 51 52 52 52 51 50 48 47 47 47 47 47 48 48 49 50 50 48 47 46 45 44 44 43 41 40 40 40 39 38 38 36 33 36 42 42
49 50 50 51 50 48 48 49 50 51 51 50 49 48 47 46 45 45 45 46 46 46 47 48 46 46 45 44 44 43 42 42 41 40 39 39 38 37 36 34 38 37 40
46 47 48 47 47 47 47 48 49 49 49 49 48 47 46 46 46 45 45 45 45 44 45 45 44 43 43 43 42 41 41 40 39 39 39 39 39 39 38 36 36 35 38
46 46 46 46 47 47 47 48 48 48 48 47 47 46 46 45 45 45 45 44 44 43 43 43 42 42 42 42 41 39 39 38 37 37 37 38 38 38 38 37 34 34 35
45 46 46 46 46 46 46 46 46 47 47 47 46 45 45 45 45 44 43 42 42 45 42 42 42 41 41 41 40 38 38 37 37 36 36 36 37 37 37 36 36 34 30
44 45 46 46 46 46 46 45 46 46 46 45 45 45 44 44 43 42 42 42 42 42 42 41 41 41 41 40 39 37 38 38 37 39 37 36 37 36 36 35 36 35 33
45 45 46 46 46 45 44 45 44 45 45 44 43 43 43 43 42 42 41 41 41 41 41 41 41 41 40 39 38 38 39 39 38 38 37 38 38 37 36 36 35 34 33
46 46 45 45 44 44 44 44 44 44 44 44 43 42 42 41 40 40 40 41 40 40 40 40 40 40 40 39 39 38 39 38 37 38 37 37 41 37 36 35 34 34 34
44 44 44 43 44 43 43 43 43 43 44 43 42 41 41 40 39 40 40 40 40 39 39 40 40 40 41 40 40 39 38 38 39 39 38 38 37 36 35 35 34 33 37
44 43 42 42 42 43 43 43 43 43 43 42 41 40 40 40 39 39 39 40 39 39 40 40 41 41 42 42 39 38 38 38 39 39 38 37 35 34 34 35 34 36 33
43 42 42 41 41 41 42 42 42 43 42 41 41 40 40 39 39 39 39 40 39 40 40 41 42 42 41 42 39 38 37 36 36 37 37 37 38 41 41 39 35 33 32
43 43 43 42 42 41 42 42 42 42 41 41 41 41 40 39 39 39 39 39 39 40 41 41 40 39 42 45 47 45 37 36 35 34 36 36 39 38 42 43 43 41 35
41 42 41 41 41 41 42 41 41 41 40 40 40 40 39 39 39 39 38 39 40 39 39 39 39 37 38 45 46 46 38 35 34 33 33 34 38 38 34 38 41 41 42
41 42 41 40 40 40 40 40 40 39 39 39 39 39 39 38 38 38 38 38 38 38 37 36 36 35 37 44 45 45 38 34 33 32 32 31 32 33 34 33 32 34 35
41 41 40 39 38 37 38 38 38 38 38 38 38 38 39 38 38 38 38 38 36 36 35 35 34 33 34 41 43 43 34 32 32 32 32 31 31 37 41 37 34 34 36
41 41 40 39 37 36 37 38 37 37 37 38 39 39 39 38 38 37 36 36 35 34 34 34 33 35 35 39 42 42 33 31 31 31 32 39 38 41 42 37 33 34 35
39 39 36 37 36 37 38 37 36 37 38 39 39 38 38 37 36 35 34 33 32 32 31 32 32 31 33 32 40 42 36 32 32 31 33 33 40 41 41 42 37 37 39
38 37 37 36 36 37 37 36 36 37 38 38 38 37 36 37 37 33 32 31 30 28 28 27 30 31 31 36 38 41 42 41 34 33 33 32 39 40 41 41 42 42 42
38 37 36 36 35 35 36 35 35 36 36 36 35 35 34 34 34 31 31 30 29 28 29 30 30 31 32 31 38 40 40 41 36 32 35 39 41 41 41 41 41 41 33
37 36 35 35 35 34 35 34 35 35 34 34 33 33 32 33 32 31 31 28 27 28 30 29 29 30 31 31 31 31 30 35 35 36 34 37 39 40 40 37 34 32 30
36 36 35 35 34 34 34 34 35 34 33 32 31 31 30 29 28 29 29 30 30 30 31 32 31 30 30 33 38 39 37 34 35 38 36 34 33 31 30 29 28 27 28
35 34 34 34 34 35 34 34 34 33 31 31 31 30 30 28 28 28 29 36 38 39 39 39 38 36 39 40 40 40 40 41 40 35 32 32 31 28 28 27 28 28 30
MSLP
1015.19 1015.48 1015.78 1016.29 1016.95 1017.58 1018.22 1018.71 1019.21 1019.50 1019.81 1020.22 1020.56 1020.73 1020.80 1020.65 1020.62 1020.59 1020.58 1020.64 1020.76 1020.74 1020.87 1020.96 1020.96 1020.98 1021.08 1021.14 1021.13 1021.06 1021.05 1020.83 1020.51 1020.12 1019.43 1019.15 1018.87 1018.69 1018.62 1018.45 1018.40 1018.34 1018.34
1015.26 1015.46 1015.92 1016.44 1016.92 1017.44 1018.13 1018.67 1019.06 1019.37 1019.62 1019.84 1020.11 1020.26 1020.50 1020.70 1020.71 1020.62 1020.57 1020.47 1020.45 1020.50 1020.70 1020.85 1020.96 1021.04 1021.23 1021.29 1021.29 1021.28 1021.32 1021.18 1020.94 1021.09 1020.96 1020.53 1019.57 1019.08 1018.90 1018.73 1018.59 1018.67 1018.57
1015.30 1015.63 1016.03 1016.55 1017.05 1017.57 1017.98 1018.45 1018.74 1019.12 1019.45 1019.75 1020.10 1020.47 1020.65 1020.84 1020.87 1020.71 1020.54 1020.35 1020.40 1020.51 1020.66 1020.85 1021.00 1021.15 1021.30 1021.39 1021.41 1021.45 1021.51 1021.63 1021.35 1021.28 1021.37 1021.24 1021.19 1020.62 1019.28 1019.05 1018.88 1018.88 1018.86
1015.37 1015.71 1016.15 1016.68 1017.29 1017.60 1017.96 1018.27 1018.63 1019.02 1019.44 1019.80 1020.10 1020.41 1020.69 1020.99 1020.85 1020.76 1020.75 1020.62 1020.48 1020.49 1020.58 1020.69 1020.86 1021.01 1021.18 1021.32 1021.32 1021.34 1021.57 1021.85 1021.98 1021.61 1021.46 1021.57 1021.55 1021.49 1020.78 1019.64 1019.17 1019.07 1018.95
1015.36 1015.82 1016.18 1016.59 1017.22 1017.59 1017.86 1018.25 1018.72 1019.22 1019.46 1019.70 1019.90 1020.22 1020.58 1020.77 1020.77 1020.81 1020.80 1020.78 1020.67 1020.58 1020.58 1020.72 1020.94 1021.11 1021.26 1021.34 1021.43 1021.42 1021.55 1021.62 1021.84 1021.93 1021.91 1021.87 1021.82 1021.80 1021.82 1020.88 1020.10 1019.45 1018.92
1015.49 1016.00 1016.47 1016.90 1017.42 1017.83 1018.25 1018.60 1018.90 1019.21 1019.37 1019.50 1019.77 1020.06 1020.44 1020.70 1020.85 1020.86 1020.90 1020.88 1020.90 1020.88 1020.83 1020.88 1021.05 1021.20 1021.29 1021.33 1021.31 1021.27 1021.38 1021.58 1021.67 1021.76 1021.80 1021.86 1021.93 1021.87 1021.91 1021.56 1020.67 1020.02 1019.03
1015.71 1016.22 1016.71 1017.22 1017.81 1018.24 1018.47 1018.73 1018.97 1019.18 1019.37 1019.56 1019.70 1019.93 1020.21 1020.43 1020.65 1020.79 1020.95 1021.07 1021.10 1021.17 1021.24 1021.20 1021.34 1021.40 1021.43 1021.48 1021.50 1021.51 1021.45 1021.54 1021.67 1021.68 1021.67 1021.58 1021.53 1021.57 1021.61 1021.47 1020.86 1020.28 1019.04
1015.94 1016.39 1016.96 1017.44 1017.85 1018.27 1018.60 1018.90 1019.16 1019.35 1019.41 1019.59 1019.79 1019.98 1020.20 1020.45 1020.63 1020.75 1021.01 1021.24 1021.33 1021.37 1021.41 1021.54 1021.59 1021.57 1021.46 1021.47 1021.54 1021.52 1021.52 1021.52 1021.48 1021.62 1021.71 1021.70 1021.50 1021.38 1021.33 1021.29 1021.20 1020.45 1019.69
1016.34 1016.76 1017.20 1017.58 1018.15 1018.56 1018.82 1019.09 1019.34 1019.45 1019.50 1019.67 1019.93 1020.15 1020.37 1020.59 1020.81 1020.98 1021.11 1021.23 1021.29 1021.29 1021.38 1021.39 1021.45 1021.46 1021.48 1021.48 1021.50 1021.56 1021.58 1021.59 1021.56 1021.54 1021.53 1021.39 1021.17 1021.18 1021.11 1021.02 1021.03 1021.02 1020.53
1016.77 1017.17 1017.56 1017.85 1018.33 1018.62 1018.85 1019.11 1019.31 1019.42 1019.53 1019.79 1020.03 1020.30 1020.51 1020.61 1020.72 1020.88 1021.03 1021.10 1021.19 1021.16 1021.22 1021.28 1021.31 1021.33 1021.25 1021.26 1021.34 1021.34 1021.26 1021.24 1021.12 1021.11 1021.15 1021.25 1021.09 1020.95 1020.77 1020.72 1020.66 1020.72 1020.56
1016.90 1017.37 1017.75 1018.06 1018.35 1018.57 1018.85 1019.09 1019.34 1019.51 1019.69 1019.82 1020.04 1020.31 1020.51 1020.67 1020.82 1020.92 1021.06 1021.18 1021.27 1021.37 1021.47 1021.50 1021.57 1021.57 1021.51 1021.40 1021.38 1021.26 1021.09 1021.02 1020.98 1020.83 1020.76 1020.64 1020.64 1020.54 1020.43 1020.26 1020.24 1020.22 1020.17
1016.90 1017.33 1017.68 1018.11 1018.50 1018.77 1018.94 1019.09 1019.26 1019.39 1019.52 1019.72 1020.01 1020.25 1020.41 1020.62 1020.83 1021.01 1021.09 1021.16 1021.26 1021.36 1021.43 1021.53 1021.49 1021.44 1021.31 1021.17 1021.07 1021.05 1020.92 1020.71 1020.53 1020.36 1020.37 1020.21 1020.04 1020.05 1019.93 1019.91 1019.75 1019.57 1019.29
1017.05 1017.44 1017.83 1018.17 1018.36 1018.58 1018.73 1018.87 1019.00 1019.12 1019.24 1019.49 1019.79 1020.18 1020.48 1020.76 1020.96 1021.07 1021.11 1021.17 1021.27 1021.40 1021.40 1021.43 1021.32 1021.18 1021.01 1020.90 1020.77 1020.62 1020.48 1020.40 1020.20 1020.13 1019.99 1019.84 1019.78 1019.47 1019.41 1019.33 1019.25 1019.04 1018.62
1017.51 1017.74 1018.03 1018.21 1018.36 1018.55 1018.65 1018.74 1018.85 1019.05 1019.21 1019.48 1019.81 1020.19 1020.42 1020.64 1020.85 1021.05 1021.23 1021.23 1021.27 1021.18 1021.15 1021.10 1020.90 1020.81 1020.69 1020.53 1020.39 1020.06 1019.96 1019.74 1019.56 1019.47 1019.36 1019.21 1019.12 1019.04 1018.93 1018.78 1018.57 1018.30 1018.13
1017.86 1018.05 1018.27 1018.38 1018.30 1018.33 1018.37 1018.36 1018.46 1018.71 1018.96 1019.42 1019.76 1019.97 1020.11 1020.33 1020.62 1020.88 1021.05 1021.16 1021.16 1020.87 1020.80 1020.73 1020.63 1020.53 1020.34 1020.08 1019.64 1019.40 1019.35 1019.19 1019.03 1018.84 1018.86 1018.67 1018.43 1018.28 1018.19 1017.98 1017.86 1017.79 1017.52
1017.89 1018.01 1018.24 1018.34 1018.42 1018.41 1018.30 1018.14 1018.08 1018.31 1018.70 1019.17 1019.48 1019.71 1020.00 1020.18 1020.48 1020.73 1020.83 1020.96 1020.78 1020.58 1020.53 1020.46 1020.27 1020.11 1019.86 1019.47 1018.99 1018.89 1018.81 1018.73 1018.76 1018.67 1018.30 1018.22 1018.04 1017.73 1017.50 1017.38 1017.19 1016.96 1016.74
1018.07 1018.30 1018.50 1018.45 1018.32 1018.22 1018.02 1017.91 1017.72 1017.84 1018.34 1018.81 1019.28 1019.67 1019.92 1020.16 1020.28 1020.41 1020.62 1020.71 1020.64 1020.43 1020.23 1020.12 1019.89 1019.80 1019.38 1018.88 1018.52 1018.34 1018.16 1018.01 1017.96 1017.99 1017.82 1017.63 1017.35 1017.13 1016.90 1016.67 1016.49 1016.23 1015.95
1018.05 1018.32 1018.42 1018.51 1018.57 1018.37 1018.08 1017.74 1017.62 1017.88 1018.40 1018.91 1019.27 1019.62 1019.93 1020.25 1020.35 1020.53 1020.61 1020.57 1020.55 1020.40 1020.13 1019.89 1019.75 1019.48 1019.07 1018.53 1018.19 1017.95 1017.58 1017.31 1017.13 1017.15 1017.01 1016.87 1016.61 1016.31 1016.25 1015.99 1015.75 1015.40 1015.05
1017.94 1018.37 1018.73 1018.84 1018.67 1018.46 1018.33 1018.20 1018.31 1018.49 1018.76 1019.07 1019.41 1019.79 1020.09 1020.27 1020.39 1020.57 1020.74 1020.49 1020.43 1020.19 1019.89 1019.68 1019.43 1019.23 1018.65 1018.04 1017.64 1017.44 1017.11 1016.80 1016.47 1016.27 1016.13 1016.10 1015.90 1015.62 1015.46 1015.19 1014.92 1014.57 1014.04
1018.16 1018.45 1018.69 1018.89 1019.09 1019.05 1018.71 1018.68 1019.01 1019.11 1019.23 1019.35 1019.59 1019.82 1019.95 1020.08 1020.35 1020.46 1020.56 1020.29 1020.15 1019.95 1019.57 1019.28 1018.97 1018.63 1018.07 1017.60 1017.11 1016.81 1016.51 1016.30 1015.89 1015.62 1015.26 1015.08 1014.95 1014.71 1014.52 1014.36 1014.27 1013.85 1013.37
1018.20 1018.55 1019.00 1019.32 1019.34 1019.23 1019.20 1019.35 1019.43 1019.59 1019.59 1019.70 1019.80 1019.95 1020.20 1020.34 1020.37 1020.54 1020.46 1020.25 1019.99 1019.66 1019.36 1019.00 1018.52 1018.03 1017.53 1016.89 1016.46 1015.96 1015.66 1015.54 1015.18 1014.91 1014.56 1014.27 1014.16 1013.99 1013.79 1013.57 1013.34 1012.97 1012.58
1018.55 1018.93 1019.33 1019.57 1019.55 1019.46 1019.53 1019.87 1019.97 1020.00 1019.95 1019.99 1020.01 1020.18 1020.33 1020.36 1020.32 1020.41 1020.24 1020.00 1019.90 1019.56 1019.12 1018.59 1018.00 1017.43 1016.82 1016.39 1015.88 1015.43 1015.00 1014.66 1014.47 1014.14 1013.79 1013.55 1013.37 1013.15 1012.88 1012.56 1012.25 1012.08 1011.67
1018.88 1019.20 1019.46 1019.70 1019.80 1019.89 1019.95 1020.26 1020.49 1020.34 1020.36 1020.53 1020.59 1020.48 1020.27 1020.27 1020.33 1020.41 1020.16 1019.91 1019.61 1019.22 1018.71 1018.18 1017.55 1016.89 1016.35 1015.80 1015.28 1014.83 1014.41 1014.08 1013.78 1013.42 1013.06 1012.75 1012.43 1012.10 1011.82 1011.69 1011.62 1011.41 1011.36
1018.96 1019.28 1019.71 1020.03 1020.22 1020.24 1020.41 1020.61 1020.61 1020.55 1020.52 1020.56 1020.52 1020.44 1020.37 1020.24 1020.12 1020.12 1019.84 1019.55 1019.17 1018.76 1018.25 1017.72 1017.09 1016.40 1015.76 1015.30 1014.74 1014.30 1013.79 1013.40 1013.03 1012.61 1012.20 1011.91 1011.65 1011.37 1011.05 1010.98 1011.00 1010.97 1010.91
1019.24 1019.45 1019.80 1020.08 1020.27 1020.29 1020.41 1020.48 1020.53 1020.54 1020.67 1020.62 1020.50 1020.43 1020.37 1020.27 1020.10 1019.88 1019.70 1019.15 1018.63 1018.31 1017.59 1017.01 1016.53 1015.91 1015.12 1014.51 1014.06 1013.41 1012.83 1012.51 1012.23 1011.74 1011.52 1011.29 1011.08 1010.96 1010.97 1010.83 1010.60 1010.47 1010.28
1019.34 1019.64 1019.91 1020.16 1020.40 1020.53 1020.64 1020.63 1020.58 1020.58 1020.74 1020.72 1020.62 1020.56 1020.35 1020.25 1019.97 1019.51 1019.02 1018.62 1018.01 1017.44 1016.92 1016.35 1015.85 1015.10 1014.54 1013.80 1013.21 1012.67 1012.14 1011.69 1011.48 1011.12 1010.96 1010.69 1010.68 1010.71 1010.49 1010.32 1010.05 1009.96 1009.63
Wind_Speed
5 6 7 7 7 6 7 8 8 7 4 2 2 0 2 2 2 2 4 3 3 2 2 1 1 0 1 1 2 2 3 3 4 4 4 3 4 3 2 3 3 3 3
6 7 7 7 8 9 8 7 7 7 5 3 2 2 2 1 1 1 2 3 4 4 3 2 1 1 2 3 3 3 3 2 4 2 0 4 5 4 4 4 3 4 3
9 7 8 8 6 8 9 9 8 8 5 5 3 2 2 2 2 1 2 2 3 3 2 2 1 1 1 2 2 2 2 2 2 4 1 3 2 4 3 4 3 5 3
5 4 7 7 7 6 6 6 7 7 5 6 3 3 3 3 3 1 1 3 2 1 1 1 0 1 1 2 2 1 1 1 2 3 2 1 2 1 5 4 3 4 6
8 9 8 6 4 6 6 6 6 5 5 5 5 4 4 2 0 0 2 2 2 3 0 1 2 2 2 2 3 3 2 1 1 1 2 1 1 1 3 5 4 5 3
8 6 6 7 5 3 4 5 7 5 5 6 5 5 5 4 2 2 2 1 1 2 4 5 4 3 3 3 2 2 2 1 1 1 2 2 2 2 2 3 5 7 5
7 8 9 7 6 6 6 5 7 5 4 5 5 4 5 5 5 3 2 2 1 1 3 3 4 3 3 4 4 3 3 2 1 2 2 1 3 2 3 2 4 4 3
6 7 7 7 6 6 6 4 4 4 4 3 3 3 3 2 2 2 2 1 2 2 2 3 4 4 3 3 3 2 2 2 2 3 2 2 3 1 1 2 2 5 3
6 7 5 4 4 5 5 5 4 4 4 3 2 2 2 2 2 2 3 2 2 2 3 3 3 3 3 3 3 2 2 3 2 3 2 1 2 2 2 2 2 2 4
4 3 4 5 4 4 4 5 4 5 4 3 3 2 2 3 4 4 4 4 3 3 3 3 2 2 2 2 2 1 1 1 2 1 2 3 2 3 2 3 3 3 4
4 4 4 4 5 4 4 5 4 3 3 3 3 4 3 3 4 4 3 3 2 2 2 2 1 2 2 2 2 3 3 3 3 3 3 4 4 3 3 3 3 3 3
3 3 3 3 3 5 4 5 4 4 4 4 5 5 5 5 4 4 4 4 4 2 1 1 1 2 3 3 3 4 4 4 5 5 5 5 4 5 4 3 5 4 4
3 1 1 3 5 6 5 6 5 6 5 5 6 5 5 5 5 4 4 3 3 2 1 2 3 4 5 5 5 5 5 5 5 5 5 5 5 5 4 4 4 4 5
6 3 1 4 6 6 6 6 6 5 5 6 6 6 6 6 5 4 4 3 3 3 3 4 5 5 6 6 6 6 6 5 5 6 6 6 6 6 6 6 6 6 4
6 4 3 4 4 5 6 6 6 6 6 6 6 6 5 5 4 4 4 4 4 4 5 5 6 6 5 6 7 6 6 6 7 6 6 6 7 11 10 6 5 5 5
5 6 6 6 5 5 6 6 6 6 6 6 7 5 5 5 5 4 4 4 6 6 5 6 6 7 6 13 12 10 6 6 6 6 7 6 10 10 13 14 16 12 6
2 4 6 6 7 7 6 7 6 6 7 7 5 6 5 5 6 5 4 5 6 5 6 7 6 7 8 13 14 15 6 6 6 6 6 7 6 10 6 13 16 14 18
3 5 5 6 7 6 6 4 1 5 6 6 5 5 5 5 4 3 4 5 4 6 6 7 7 6 8 16 16 16 7 6 7 7 7 7 9 8 8 7 8 10 11
2 2 3 3 6 7 6 4 5 5 5 5 4 3 4 3 2 4 5 6 5 6 5 6 7 7 9 17 17 15 6 6 8 7 7 7 8 14 16 9 10 11 10
1 3 5 3 3 4 3 6 5 4 4 2 3 3 3 2 3 4 6 4 4 6 5 8 7 11 11 15 19 16 4 6 6 6 7 14 10 15 16 9 6 10 10
1 2 3 2 2 3 4 6 5 3 1 1 1 1 2 3 4 5 4 4 6 6 7 8 8 9 10 10 18 18 7 5 6 6 7 5 13 15 16 17 9 11 14
3 2 3 3 3 5 5 4 4 3 3 2 2 3 4 4 4 5 5 6 6 6 7 7 9 7 8 14 15 17 17 14 6 7 6 6 15 17 18 17 18 22 22
3 2 4 4 4 4 4 4 3 4 4 4 5 5 5 5 5 5 6 5 5 5 7 7 8 8 7 7 16 18 18 16 9 4 10 18 20 21 16 16 18 20 5
4 3 4 3 3 4 4 3 3 3 3 4 6 5 5 7 5 4 4 4 5 6 6 7 8 8 8 7 6 6 7 12 10 12 10 12 16 17 16 12 9 6 5
3 3 4 3 3 3 3 3 3 4 4 5 5 5 4 5 5 4 5 5 5 6 8 7 7 8 10 10 15 16 9 6 8 13 7 6 5 5 4 6 5 4 5
3 4 4 4 2 3 3 4 4 3 3 4 4 4 4 4 4 5 6 9 14 17 19 20 16 10 18 24 24 23 22 22 20 10 7 6 4 5 7 6 6 5 9
Wind_Direction
197 178 184 168 161 156 157 174 171 179 152 141 144 196 231 231 265 240 245 239 225 217 197 215 267 9 13 316 326 325 358 328 332 343 341 337 8 52 358 343 306 306 303
184 184 164 161 173 173 180 175 186 176 182 153 170 152 159 212 250 295 299 243 225 216 202 214 273 330 341 347 358 26 344 321 11 24 325 356 333 349 15 12 2 30 350
191 184 168 180 170 178 185 179 186 180 183 173 114 76 57 28 354 314 278 264 246 239 221 210 222 318 23 339 341 346 26 351 328 13 123 3 313 327 330 355 44 8 8
178 174 169 171 182 192 167 179 175 179 182 168 145 157 174 196 226 232 325 325 355 255 238 207 164 351 10 351 336 33 50 67 340 337 37 335 185 274 323 328 321 1 341
185 185 187 155 158 161 177 178 166 172 172 168 168 169 187 214 295 301 308 317 352 355 303 139 86 34 27 5 355 356 357 115 158 176 336 348 328 298 233 286 310 314 282
196 164 139 140 149 142 135 148 162 169 165 176 171 182 200 205 213 235 240 284 69 56 60 74 67 55 41 22 9 13 15 329 249 228 217 203 227 259 265 275 298 289 294
151 152 155 160 147 158 161 155 167 181 172 178 191 195 204 200 211 215 195 174 148 67 41 57 53 46 32 31 25 29 24 14 350 325 289 231 231 210 228 237 274 281 298
149 155 153 159 165 168 170 171 173 187 192 181 197 195 197 192 197 178 153 123 109 118 77 73 63 49 52 49 41 53 16 23 14 349 332 304 309 300 237 246 270 305 268
141 154 160 160 158 174 193 192 188 201 199 197 176 192 170 156 154 113 111 120 118 137 114 100 96 80 70 60 50 46 12 360 343 328 334 301 294 311 289 262 219 212 301
128 144 173 184 198 204 203 197 199 201 202 188 187 174 157 152 146 138 144 146 155 138 135 129 115 89 69 55 57 8 288 343 292 259 318 320 282 299 291 282 265 228 226
179 192 199 201 206 207 206 212 202 202 198 181 168 160 163 151 149 157 163 165 144 143 129 121 77 32 360 342 332 301 275 296 288 277 269 286 276 278 277 268 260 259 225
230 221 219 216 212 223 224 219 206 201 200 183 169 179 171 168 166 171 176 168 169 162 144 92 342 293 287 281 283 288 285 274 269 274 277 280 290 280 265 263 266 252 247
61 34 337 243 240 242 241 233 221 217 204 183 179 178 179 176 187 189 186 178 168 179 252 250 270 276 278 286 276 269 269 267 277 273 269 275 277 277 263 262 265 253 263
62 66 344 273 263 251 243 243 246 220 206 187 181 185 187 190 191 192 194 187 196 220 249 255 262 267 274 273 269 259 264 274 261 255 250 255 256 261 271 271 259 267 261
55 41 16 344 321 297 268 244 231 209 192 188 186 202 191 183 179 189 201 216 230 242 248 262 269 270 273 264 245 245 254 257 263 262 259 256 253 265 278 285 266 256 265
28 4 349 335 311 294 282 271 246 209 172 185 199 190 177 175 190 204 215 233 251 257 267 270 269 279 268 262 282 285 256 258 261 269 275 264 278 276 283 290 294 282 281
340 330 323 319 318 318 311 291 251 169 174 175 181 184 178 189 205 214 227 251 263 268 275 278 278 271 266 285 291 285 257 248 254 255 261 277 269 278 265 282 287 284 283
307 320 323 324 316 314 311 314 137 155 151 159 171 179 183 208 224 240 259 276 279 282 283 288 280 275 285 297 297 290 270 254 253 246 249 244 266 263 267 261 259 261 259
315 301 307 301 334 351 344 63 81 116 134 147 167 181 194 220 250 275 285 289 288 292 281 273 286 283 283 290 292 289 262 256 256 250 249 237 250 265 281 274 264 267 267
5 344 346 4 20 352 53 83 85 95 99 138 195 202 198 215 280 302 295 278 277 276 287 287 275 276 280 282 290 288 254 255 257 261 252 262 262 270 284 284 277 283 286
19 52 43 84 44 27 60 66 60 52 332 165 115 63 350 330 307 300 286 289 300 295 286 284 282 277 274 281 288 288 274 244 260 254 268 259 270 281 286 285 272 278 289
142 135 109 88 36 39 56 56 53 353 47 52 14 344 333 314 307 304 292 301 293 288 290 286 292 277 272 282 287 291 287 279 256 260 257 254 273 280 279 285 289 292 299
144 132 136 101 42 39 64 67 12 23 18 359 330 316 322 321 315 308 302 307 292 287 292 291 292 291 283 273 287 296 296 292 284 252 261 271 276 282 287 289 292 299 301
151 124 116 92 59 38 49 60 2 357 6 330 324 328 333 322 319 301 285 286 287 292 289 292 290 289 289 284 281 273 275 279 278 274 273 271 272 266 276 286 282 269 264
119 116 122 109 83 61 47 18 15 19 359 337 323 321 317 311 304 282 275 282 268 274 290 286 279 289 291 288 288 296 294 271 270 294 282 276 267 264 269 270 263 255 265
125 110 106 103 77 52 27 12 18 26 354 326 327 317 310 298 291 295 303 301 307 310 306 303 300 294 291 298 302 302 303 302 300 294 285 281 280 265 271 263 285 270 282